Maplewood, Minnesota, United States
Lat: 44.95N, Lon: 93W
Wx Zone: MNZ062
Local Info
Past Weather Observations for Monday, March 23, 2015

NOTE: This archive is for the closest National Weather Service station to Maplewood. Information may differ from the station used for current weather conditions.

Click here for Long-term Archive

Time Weather Temperature Dewpoint Humidity Pressure Winds Precip Visibility
23:53
Clear
28°F / -2°C 25°F / -4°C 86% 30.24 in
(1024 mb)
S 6.9 mph
(S 11 kph)
- 10SM
23:30
Partly Cloudy
30°F / -1°C 25°F / -4°C 80% 30.24 in
(1024 mb)
SSE 8.1 mph
(SSE 13 kph)
- 10SM
22:53
Overcast
30°F / -1°C 27°F / -3°C 86% 30.24 in
(1024 mb)
SSE 9.2 mph
(SSE 15 kph)
- 10SM
21:53
Overcast
32°F / 0°C 27°F / -3°C 80% 30.24 in
(1024 mb)
SSE 15 mph
(SSE 24 kph)
- 10SM
20:53
Overcast
32°F / 0°C 25°F / -4°C 75% 30.24 in
(1024 mb)
SSE 12.7 mph
(SSE 20 kph)
- 10SM
19:53
Overcast
32°F / 0°C 27°F / -3°C 80% 30.24 in
(1024 mb)
SSE 9.2 mph
(SSE 15 kph)
- 10SM
18:53
Overcast
32°F / 0°C 27°F / -3°C 80% 30.24 in
(1024 mb)
S 8.1 mph
(S 13 kph)
- 10SM
17:53
Overcast
32°F / 0°C 27°F / -3°C 80% 30.24 in
(1024 mb)
SSE 5.8 mph
(SSE 9 kph)
- 10SM
16:53
Overcast
34°F / 1°C 27°F / -3°C 75% 30.24 in
(1024 mb)
S 6.9 mph
(S 11 kph)
- 10SM
15:53
Overcast
34°F / 1°C 27°F / -3°C 75% 30.24 in
(1024 mb)
S 11.5 mph
(S 19 kph)
- 10SM
14:53
Overcast
34°F / 1°C 27°F / -3°C 75% 30.24 in
(1024 mb)
S 10.4 mph
(S 17 kph)
- 10SM
13:53
Overcast
32°F / 0°C 27°F / -3°C 80% 30.27 in
(1025 mb)
SSE 10.4 mph
(SSE 17 kph)
- 10SM
12:53
Overcast
32°F / 0°C 27°F / -3°C 80% 30.3 in
(1026 mb)
S 5.8 mph
(S 9 kph)
- 10SM
11:53
Overcast
32°F / 0°C 27°F / -3°C 80% 30.3 in
(1026 mb)
SSE 10.4 mph
(SSE 17 kph)
- 10SM
10:53
Overcast
30°F / -1°C 25°F / -4°C 80% 30.3 in
(1026 mb)
SE 9.2 mph
(SE 15 kph)
- 10SM
10:30
Overcast
30°F / -1°C 25°F / -4°C 80% 30.3 in
(1026 mb)
SE 12.7 mph
(SE 20 kph)
- 10SM
09:53
Overcast
30°F / -1°C 25°F / -4°C 80% 30.3 in
(1026 mb)
SE 12.7 mph
(SE 20 kph)
- 10SM
08:53
Overcast
30°F / -1°C 27°F / -3°C 86% 30.3 in
(1026 mb)
SE 11.5 mph
(SE 19 kph)
- 10SM
07:53
Overcast
30°F / -1°C 27°F / -3°C 86% 30.3 in
(1026 mb)
SE 9.2 mph
(SE 15 kph)
- 10SM
06:53
Overcast
30°F / -1°C 27°F / -3°C 86% 30.27 in
(1025 mb)
E 6.9 mph
(E 11 kph)
- 10SM
05:53
Overcast
30°F / -1°C 27°F / -3°C 86% 30.27 in
(1025 mb)
E 8.1 mph
(E 13 kph)
- 10SM
04:53
Overcast
30°F / -1°C 27°F / -3°C 86% 30.27 in
(1025 mb)
E 6.9 mph
(E 11 kph)
0.00 in
(0.00 mm)
10SM
03:53
Overcast
Light Snow
30°F / -1°C 27°F / -3°C 86% 30.27 in
(1025 mb)
E 4.6 mph
(E 7 kph)
0.00 in
(0.00 mm)
5SM
02:53
Overcast
30°F / -1°C 28°F / -2°C 93% 30.27 in
(1025 mb)
ENE 5.8 mph
(ENE 9 kph)
0.00 in
(0.00 mm)
8SM
02:33
Overcast
Light Snow
30°F / -1°C 28°F / -2°C 93% 30.27 in
(1025 mb)
ENE 6.9 mph
(ENE 11 kph)
0.00 in
(0.00 mm)
2 1/2SM
02:20
Overcast
Light Snow
30°F / -1°C 28°F / -2°C 93% 30.27 in
(1025 mb)
ENE 6.9 mph
(ENE 11 kph)
0.00 in
(0.00 mm)
2 1/2SM
01:53
Overcast
Light Snow
30°F / -1°C 28°F / -2°C 93% 30.27 in
(1025 mb)
E 5.8 mph
(E 9 kph)
0.00 in
(0.00 mm)
4SM
01:30
Overcast
Light Snow
30°F / -1°C 28°F / -2°C 93% 30.27 in
(1025 mb)
ENE 5.8 mph
(ENE 9 kph)
0.00 in
(0.00 mm)
3SM
01:03
Overcast
Light Snow
30°F / -1°C 28°F / -2°C 93% 30.27 in
(1025 mb)
ENE 4.6 mph
(ENE 7 kph)
0.00 in
(0.00 mm)
2SM
00:53
Overcast
Light Snow
30°F / -1°C 28°F / -2°C 93% 30.27 in
(1025 mb)
ENE 4.6 mph
(ENE 7 kph)
0.00 in
(0.00 mm)
3SM
Time Weather Temperature Dewpoint Humidity Pressure Winds Precip Visibility


Weather for websites

WeatherForYou.com, LLC is not responsible for any damages or problems caused by this service. Current weather conditions are obtained from the closest station including government and personal stations which may have varying degrees of accuracy. Weather forecasts are derived from the NOAA NDFD. Like all things, this site belongs to Jesus Christ... He just trusts me to maintain it. If you have any questions or comments email webmaster@weatherforyou.com

Copyright © 2015, WeatherForYou.com LLC. All rights reserved.